Time,TemperatureF,DewpointF,PressureIn,WindDirection,WindDirectionDegrees,WindSpeedMPH,WindSpeedGustMPH,Humidity,HourlyPrecipIn,Conditions,Clouds,dailyrainin,SoftwareType,DateUTC
2013-01-19 00:00:00,27.6,17.4,30.42,SW,224,0.0,0.0,65,0.00,,---,0.00,VWS V13.01,2013-01-19 05:00:00,
2013-01-19 00:02:00,27.6,17.4,30.42,SW,224,1.0,3.0,65,0.00,,---,0.00,VWS V13.01,2013-01-19 05:02:00,
2013-01-19 00:03:00,27.6,17.4,30.41,SW,224,3.0,3.0,65,0.00,,---,0.00,VWS V13.01,2013-01-19 05:03:00,
2013-01-19 00:08:00,27.6,17.0,30.41,SSW,194,4.0,5.0,64,0.00,,---,0.00,VWS V13.01,2013-01-19 05:08:00,
2013-01-19 00:13:00,27.8,16.9,30.41,SSW,207,2.0,2.0,63,0.00,,---,0.00,VWS V13.01,2013-01-19 05:13:00,
2013-01-19 00:18:00,27.9,17.0,30.41,SW,215,2.0,2.0,63,0.00,,---,0.00,VWS V13.01,2013-01-19 05:18:00,
2013-01-19 00:23:00,28.1,16.8,30.41,SW,219,2.0,3.0,62,0.00,,---,0.00,VWS V13.01,2013-01-19 05:23:00,
2013-01-19 00:28:00,28.3,17.0,30.41,South,188,1.0,2.0,62,0.00,,---,0.00,VWS V13.01,2013-01-19 05:28:00,
2013-01-19 00:33:00,28.5,17.5,30.40,SW,229,6.0,6.0,63,0.00,,---,0.00,VWS V13.01,2013-01-19 05:33:00,
2013-01-19 00:38:00,28.7,17.3,30.40,SW,225,2.0,5.0,62,0.00,,---,0.00,VWS V13.01,2013-01-19 05:38:00,
2013-01-19 00:43:00,28.9,17.2,30.41,SSW,211,2.0,3.0,61,0.00,,---,0.00,VWS V13.01,2013-01-19 05:43:00,
2013-01-19 00:48:00,29.1,17.7,30.41,SW,226,2.0,3.0,62,0.00,,---,0.00,VWS V13.01,2013-01-19 05:48:00,
2013-01-19 00:53:00,29.2,17.8,30.41,SW,226,2.0,2.0,62,0.00,,---,0.00,VWS V13.01,2013-01-19 05:53:00,
2013-01-19 00:58:00,29.1,18.5,30.41,SW,219,3.0,4.0,64,0.00,,---,0.00,VWS V13.01,2013-01-19 05:58:00,
2013-01-19 01:03:00,29.1,18.5,30.41,SW,215,5.0,7.0,64,0.00,,---,0.00,VWS V13.01,2013-01-19 06:03:00,
2013-01-19 01:08:00,29.0,18.4,30.41,SW,218,3.0,5.0,64,0.00,,---,0.00,VWS V13.01,2013-01-19 06:08:00,
2013-01-19 01:13:00,29.0,18.7,30.41,SW,223,5.0,5.0,65,0.00,,---,0.00,VWS V13.01,2013-01-19 06:13:00,
2013-01-19 01:18:00,29.0,18.7,30.41,SSW,213,5.0,5.0,65,0.00,,---,0.00,VWS V13.01,2013-01-19 06:18:00,
2013-01-19 01:23:00,29.0,18.7,30.40,SW,216,0.0,0.0,65,0.00,,---,0.00,VWS V13.01,2013-01-19 06:23:00,
2013-01-19 01:28:00,28.9,18.6,30.41,SW,216,0.0,3.0,65,0.00,,---,0.00,VWS V13.01,2013-01-19 06:28:00,
2013-01-19 01:33:00,28.8,18.9,30.41,SSW,205,1.0,1.0,66,0.00,,---,0.00,VWS V13.01,2013-01-19 06:33:00,
2013-01-19 01:38:00,28.8,18.9,30.40,SSW,200,3.0,5.0,66,0.00,,---,0.00,VWS V13.01,2013-01-19 06:38:00,
2013-01-19 01:43:00,28.8,18.9,30.41,SW,227,2.0,5.0,66,0.00,,---,0.00,VWS V13.01,2013-01-19 06:43:00,
2013-01-19 01:48:00,28.8,19.2,30.40,SW,215,0.0,4.0,67,0.00,,---,0.00,VWS V13.01,2013-01-19 06:48:00,
2013-01-19 01:53:00,28.8,19.2,30.40,SW,215,2.0,3.0,67,0.00,,---,0.00,VWS V13.01,2013-01-19 06:53:00,
2013-01-19 01:58:00,28.8,19.2,30.40,WSW,258,4.0,6.0,67,0.00,,---,0.00,VWS V13.01,2013-01-19 06:58:00,
2013-01-19 02:03:00,28.9,19.3,30.40,SW,224,3.0,3.0,67,0.00,,---,0.00,VWS V13.01,2013-01-19 07:03:00,
2013-01-19 02:08:00,28.9,19.3,30.39,SW,214,3.0,5.0,67,0.00,,---,0.00,VWS V13.01,2013-01-19 07:08:00,
2013-01-19 02:13:00,28.9,19.3,30.40,SSW,210,3.0,4.0,67,0.00,,---,0.00,VWS V13.01,2013-01-19 07:13:00,
2013-01-19 02:18:00,29.0,19.4,30.40,SW,217,4.0,6.0,67,0.00,,---,0.00,VWS V13.01,2013-01-19 07:18:00,
2013-01-19 02:23:00,29.0,19.8,30.39,SSW,213,3.0,7.0,68,0.00,,---,0.00,VWS V13.01,2013-01-19 07:23:00,
2013-01-19 02:28:00,29.1,19.9,30.39,SW,221,2.0,3.0,68,0.00,,---,0.00,VWS V13.01,2013-01-19 07:28:00,
2013-01-19 02:33:00,29.2,20.0,30.39,SSW,202,4.0,4.0,68,0.00,,---,0.00,VWS V13.01,2013-01-19 07:33:00,
2013-01-19 02:38:00,29.3,19.7,30.39,SW,216,2.0,3.0,67,0.00,,---,0.00,VWS V13.01,2013-01-19 07:38:00,
2013-01-19 02:43:00,29.4,20.2,30.39,SSW,204,2.0,3.0,68,0.00,,---,0.00,VWS V13.01,2013-01-19 07:43:00,
2013-01-19 02:48:00,29.5,20.3,30.38,SW,229,3.0,3.0,68,0.00,,---,0.00,VWS V13.01,2013-01-19 07:48:00,
2013-01-19 02:53:00,29.5,20.3,30.39,SW,219,2.0,3.0,68,0.00,,---,0.00,VWS V13.01,2013-01-19 07:53:00,
2013-01-19 02:58:00,29.6,20.4,30.38,SW,216,3.0,7.0,68,0.00,,---,0.00,VWS V13.01,2013-01-19 07:58:00,
2013-01-19 03:03:00,29.6,20.4,30.38,SW,214,5.0,5.0,68,0.00,,---,0.00,VWS V13.01,2013-01-19 08:03:00,
2013-01-19 03:08:00,29.7,20.5,30.38,SW,219,3.0,6.0,68,0.00,,---,0.00,VWS V13.01,2013-01-19 08:08:00,
2013-01-19 03:13:00,29.9,20.6,30.38,SSW,209,3.0,5.0,68,0.00,,---,0.00,VWS V13.01,2013-01-19 08:13:00,
2013-01-19 03:18:00,30.1,20.5,30.38,SW,230,4.0,7.0,67,0.00,,---,0.00,VWS V13.01,2013-01-19 08:18:00,
2013-01-19 03:23:00,30.2,20.6,30.37,SW,222,4.0,5.0,67,0.00,,---,0.00,VWS V13.01,2013-01-19 08:23:00,
2013-01-19 03:28:00,30.4,20.8,30.37,SW,233,4.0,8.0,67,0.00,,---,0.00,VWS V13.01,2013-01-19 08:28:00,
2013-01-19 03:33:00,30.5,20.5,30.37,SSW,212,3.0,5.0,66,0.00,,---,0.00,VWS V13.01,2013-01-19 08:33:00,
2013-01-19 03:38:00,30.7,20.7,30.37,SW,216,8.0,10.0,66,0.00,,---,0.00,VWS V13.01,2013-01-19 08:38:00,
2013-01-19 03:43:00,30.8,20.4,30.36,SSW,196,5.0,6.0,65,0.00,,---,0.00,VWS V13.01,2013-01-19 08:43:00,
2013-01-19 03:48:00,30.9,20.5,30.36,SW,220,3.0,6.0,65,0.00,,---,0.00,VWS V13.01,2013-01-19 08:48:00,
2013-01-19 03:53:00,31.1,20.4,30.36,SW,232,9.0,10.0,64,0.00,,---,0.00,VWS V13.01,2013-01-19 08:53:00,
2013-01-19 03:58:00,31.2,20.5,30.36,SW,223,13.0,13.0,64,0.00,,---,0.00,VWS V13.01,2013-01-19 08:58:00,
2013-01-19 04:03:00,31.5,20.4,30.35,SSW,200,6.0,8.0,63,0.00,,---,0.00,VWS V13.01,2013-01-19 09:03:00,
2013-01-19 04:08:00,31.6,20.5,30.35,SSW,195,3.0,7.0,63,0.00,,---,0.00,VWS V13.01,2013-01-19 09:08:00,
2013-01-19 04:13:00,31.7,20.2,30.35,SW,232,1.0,5.0,62,0.00,,---,0.00,VWS V13.01,2013-01-19 09:13:00,
2013-01-19 04:18:00,31.8,20.3,30.35,SW,216,4.0,4.0,62,0.00,,---,0.00,VWS V13.01,2013-01-19 09:18:00,
2013-01-19 04:23:00,31.8,20.3,30.34,SW,222,1.0,4.0,62,0.00,,---,0.00,VWS V13.01,2013-01-19 09:23:00,
2013-01-19 04:28:00,31.8,20.3,30.34,SSW,207,4.0,4.0,62,0.00,,---,0.00,VWS V13.01,2013-01-19 09:28:00,
2013-01-19 04:33:00,31.9,20.4,30.33,SW,225,4.0,6.0,62,0.00,,---,0.00,VWS V13.01,2013-01-19 09:33:00,
2013-01-19 04:38:00,32.0,20.9,30.34,WSW,245,4.0,5.0,63,0.00,,---,0.00,VWS V13.01,2013-01-19 09:38:00,
2013-01-19 04:43:00,32.1,20.9,30.34,SW,221,2.0,3.0,63,0.00,,---,0.00,VWS V13.01,2013-01-19 09:43:00,
2013-01-19 04:48:00,32.4,21.2,30.34,SW,230,5.0,9.0,63,0.00,,---,0.00,VWS V13.01,2013-01-19 09:48:00,
2013-01-19 04:53:00,32.6,21.4,30.33,South,178,6.0,11.0,63,0.00,,---,0.00,VWS V13.01,2013-01-19 09:53:00,
2013-01-19 04:58:00,32.9,22.1,30.33,SSW,207,4.0,5.0,64,0.00,,---,0.00,VWS V13.01,2013-01-19 09:58:00,
2013-01-19 05:03:00,33.2,22.4,30.34,SW,219,5.0,9.0,64,0.00,,---,0.00,VWS V13.01,2013-01-19 10:03:00,
2013-01-19 05:08:00,33.5,23.0,30.34,SSW,211,3.0,7.0,65,0.00,,---,0.00,VWS V13.01,2013-01-19 10:08:00,
2013-01-19 05:13:00,33.6,23.1,30.33,SSW,203,6.0,6.0,65,0.00,,---,0.00,VWS V13.01,2013-01-19 10:13:00,
2013-01-19 05:18:00,33.7,23.6,30.33,SW,220,6.0,6.0,66,0.00,,---,0.00,VWS V13.01,2013-01-19 10:18:00,
2013-01-19 05:23:00,33.9,24.1,30.33,SW,228,3.0,6.0,67,0.00,,---,0.00,VWS V13.01,2013-01-19 10:23:00,
2013-01-19 05:28:00,33.9,24.1,30.33,SW,214,6.0,10.0,67,0.00,,---,0.00,VWS V13.01,2013-01-19 10:28:00,
2013-01-19 05:33:00,34.0,24.6,30.33,SSW,206,6.0,9.0,68,0.00,,---,0.00,VWS V13.01,2013-01-19 10:33:00,
2013-01-19 05:38:00,34.0,24.6,30.33,WSW,238,5.0,10.0,68,0.00,,---,0.00,VWS V13.01,2013-01-19 10:38:00,
2013-01-19 05:43:00,34.0,24.6,30.33,SW,219,5.0,10.0,68,0.00,,---,0.00,VWS V13.01,2013-01-19 10:43:00,
2013-01-19 05:48:00,34.0,24.9,30.33,SSW,209,4.0,7.0,69,0.00,,---,0.00,VWS V13.01,2013-01-19 10:48:00,
2013-01-19 05:53:00,34.1,25.0,30.33,SW,232,3.0,5.0,69,0.00,,---,0.00,VWS V13.01,2013-01-19 10:53:00,
2013-01-19 05:58:00,34.2,25.1,30.33,SW,219,4.0,6.0,69,0.00,,---,0.00,VWS V13.01,2013-01-19 10:58:00,
2013-01-19 06:03:00,34.2,25.1,30.33,SW,232,6.0,6.0,69,0.00,,---,0.00,VWS V13.01,2013-01-19 11:03:00,
2013-01-19 06:08:00,34.3,25.2,30.33,SW,222,11.0,11.0,69,0.00,,---,0.00,VWS V13.01,2013-01-19 11:08:00,
2013-01-19 06:13:00,34.4,25.3,30.33,SW,233,11.0,13.0,69,0.00,,---,0.00,VWS V13.01,2013-01-19 11:13:00,
2013-01-19 07:47:00,35.6,25.7,30.31,WSW,252,5.0,15.0,67,0.00,,---,0.00,VWS V13.01,2013-01-19 12:47:00,
2013-01-19 07:48:00,35.6,25.7,30.31,SW,230,9.0,16.0,67,0.00,,---,0.00,VWS V13.01,2013-01-19 12:48:00,
2013-01-19 07:53:00,35.9,25.7,30.31,SSW,211,4.0,10.0,66,0.00,,---,0.00,VWS V13.01,2013-01-19 12:53:00,
2013-01-19 07:58:00,36.1,25.9,30.31,West,261,4.0,9.0,66,0.00,,---,0.00,VWS V13.01,2013-01-19 12:58:00,
2013-01-19 08:03:00,36.3,25.7,30.31,SSW,211,8.0,13.0,65,0.00,,---,0.00,VWS V13.01,2013-01-19 13:03:00,
2013-01-19 08:08:00,36.5,25.9,30.31,WSW,237,5.0,16.0,65,0.00,,---,0.00,VWS V13.01,2013-01-19 13:08:00,
2013-01-19 08:13:00,36.7,26.1,30.31,WSW,251,12.0,13.0,65,0.00,,---,0.00,VWS V13.01,2013-01-19 13:13:00,
2013-01-19 08:18:00,36.9,25.9,30.31,SW,220,4.0,9.0,64,0.00,,---,0.00,VWS V13.01,2013-01-19 13:18:00,
2013-01-19 08:23:00,37.2,26.2,30.31,SSW,192,4.0,7.0,64,0.00,,---,0.00,VWS V13.01,2013-01-19 13:23:00,
2013-01-19 08:28:00,37.4,26.0,30.31,SW,232,7.0,14.0,63,0.00,,---,0.00,VWS V13.01,2013-01-19 13:28:00,
2013-01-19 08:33:00,37.7,26.3,30.31,WSW,237,11.0,11.0,63,0.00,,---,0.00,VWS V13.01,2013-01-19 13:33:00,
2013-01-19 08:38:00,38.0,26.5,30.31,SW,216,2.0,12.0,63,0.00,,---,0.00,VWS V13.01,2013-01-19 13:38:00,
2013-01-19 08:43:00,38.4,26.9,30.31,SSW,212,10.0,10.0,63,0.00,,---,0.00,VWS V13.01,2013-01-19 13:43:00,
2013-01-19 08:48:00,38.8,26.9,30.32,SW,217,5.0,10.0,62,0.00,,---,0.00,VWS V13.01,2013-01-19 13:48:00,
2013-01-19 08:53:00,39.2,27.3,30.32,SSW,197,9.0,15.0,62,0.00,,---,0.00,VWS V13.01,2013-01-19 13:53:00,
2013-01-19 08:58:00,39.6,27.3,30.31,South,185,3.0,6.0,61,0.00,,---,0.00,VWS V13.01,2013-01-19 13:58:00,
2013-01-19 09:03:00,39.9,27.6,30.31,SW,220,14.0,16.0,61,0.00,,---,0.00,VWS V13.01,2013-01-19 14:03:00,
2013-01-19 09:08:00,40.3,27.5,30.31,SW,225,9.0,15.0,60,0.00,,---,0.00,VWS V13.01,2013-01-19 14:08:00,
2013-01-19 09:13:00,40.6,27.8,30.31,SW,221,10.0,13.0,60,0.00,,---,0.00,VWS V13.01,2013-01-19 14:13:00,
2013-01-19 09:18:00,40.8,28.0,30.31,SW,228,4.0,6.0,60,0.00,,---,0.00,VWS V13.01,2013-01-19 14:18:00,
2013-01-19 09:23:00,41.1,28.3,30.31,WSW,240,7.0,10.0,60,0.00,,---,0.00,VWS V13.01,2013-01-19 14:23:00,
2013-01-19 09:28:00,41.3,28.1,30.31,WSW,257,9.0,11.0,59,0.00,,---,0.00,VWS V13.01,2013-01-19 14:28:00,
2013-01-19 09:33:00,41.3,28.1,30.32,SW,236,0.0,9.0,59,0.00,,---,0.00,VWS V13.01,2013-01-19 14:33:00,
2013-01-19 09:38:00,41.5,28.3,30.31,SW,232,4.0,4.0,59,0.00,,---,0.00,VWS V13.01,2013-01-19 14:38:00,
2013-01-19 09:43:00,41.7,28.4,30.31,WSW,244,5.0,14.0,59,0.00,,---,0.00,VWS V13.01,2013-01-19 14:43:00,
2013-01-19 09:48:00,41.9,28.6,30.31,WSW,238,2.0,9.0,59,0.00,,---,0.00,VWS V13.01,2013-01-19 14:48:00,
2013-01-19 09:53:00,42.2,28.5,30.31,South,190,9.0,12.0,58,0.00,,---,0.00,VWS V13.01,2013-01-19 14:53:00,
2013-01-19 09:58:00,42.4,28.7,30.31,South,188,6.0,8.0,58,0.00,,---,0.00,VWS V13.01,2013-01-19 14:58:00,
2013-01-19 10:03:00,42.8,28.6,30.31,SSW,199,9.0,11.0,57,0.00,,---,0.00,VWS V13.01,2013-01-19 15:03:00,
2013-01-19 10:08:00,43.2,29.0,30.30,WSW,246,4.0,5.0,57,0.00,,---,0.00,VWS V13.01,2013-01-19 15:08:00,
2013-01-19 10:13:00,43.6,29.0,30.31,SW,225,11.0,17.0,56,0.00,,---,0.00,VWS V13.01,2013-01-19 15:13:00,
2013-01-19 10:18:00,43.8,29.1,30.30,SSW,200,10.0,10.0,56,0.00,,---,0.00,VWS V13.01,2013-01-19 15:18:00,
2013-01-19 10:23:00,44.2,29.1,30.30,WSW,244,4.0,11.0,55,0.00,,---,0.00,VWS V13.01,2013-01-19 15:23:00,
2013-01-19 10:28:00,44.5,29.4,30.30,SW,228,4.0,10.0,55,0.00,,---,0.00,VWS V13.01,2013-01-19 15:28:00,
2013-01-19 10:33:00,44.8,29.2,30.29,SW,223,10.0,14.0,54,0.00,,---,0.00,VWS V13.01,2013-01-19 15:33:00,
2013-01-19 10:38:00,45.1,29.0,30.28,SSW,192,6.0,11.0,53,0.00,,---,0.00,VWS V13.01,2013-01-19 15:38:00,
2013-01-19 10:43:00,45.4,29.7,30.28,SW,215,6.0,9.0,54,0.00,,---,0.00,VWS V13.01,2013-01-19 15:43:00,
2013-01-19 10:48:00,45.8,29.7,30.28,WSW,248,4.0,12.0,53,0.00,,---,0.00,VWS V13.01,2013-01-19 15:48:00,
2013-01-19 10:53:00,46.1,29.5,30.27,SW,232,9.0,15.0,52,0.00,,---,0.00,VWS V13.01,2013-01-19 15:53:00,
2013-01-19 10:58:00,46.4,28.8,30.27,SW,227,12.0,15.0,50,0.00,,---,0.00,VWS V13.01,2013-01-19 15:58:00,
2013-01-19 11:03:00,46.8,29.2,30.26,WSW,239,6.0,9.0,50,0.00,,---,0.00,VWS V13.01,2013-01-19 16:03:00,
2013-01-19 11:08:00,47.3,28.6,30.26,SW,216,19.0,20.0,48,0.00,,---,0.00,VWS V13.01,2013-01-19 16:08:00,
2013-01-19 11:13:00,47.5,27.8,30.25,SW,225,8.0,8.0,46,0.00,,---,0.00,VWS V13.01,2013-01-19 16:13:00,
2013-01-19 11:18:00,47.7,28.5,30.24,South,175,4.0,8.0,47,0.00,,---,0.00,VWS V13.01,2013-01-19 16:18:00,
2013-01-19 11:23:00,48.1,28.8,30.24,West,259,4.0,13.0,47,0.00,,---,0.00,VWS V13.01,2013-01-19 16:23:00,
2013-01-19 11:28:00,48.6,27.1,30.23,SSW,201,12.0,21.0,43,0.00,,---,0.00,VWS V13.01,2013-01-19 16:28:00,
2013-01-19 11:33:00,48.8,26.7,30.22,SW,236,9.0,15.0,42,0.00,,---,0.00,VWS V13.01,2013-01-19 16:33:00,
2013-01-19 11:38:00,49.1,27.6,30.22,SW,214,10.0,10.0,43,0.00,,---,0.00,VWS V13.01,2013-01-19 16:38:00,
2013-01-19 11:43:00,49.6,27.5,30.22,SW,228,3.0,8.0,42,0.00,,---,0.00,VWS V13.01,2013-01-19 16:43:00,
2013-01-19 11:48:00,49.9,27.1,30.21,WSW,240,15.0,16.0,41,0.00,,---,0.00,VWS V13.01,2013-01-19 16:48:00,
2013-01-19 11:54:00,50.1,26.7,30.21,West,259,6.0,10.0,40,0.00,,---,0.00,VWS V13.01,2013-01-19 16:54:00,
2013-01-19 11:59:00,50.3,26.9,30.20,WSW,252,10.0,13.0,40,0.00,,---,0.00,VWS V13.01,2013-01-19 16:59:00,
2013-01-19 12:04:00,50.5,26.5,30.20,WSW,246,7.0,11.0,39,0.00,,---,0.00,VWS V13.01,2013-01-19 17:04:00,
2013-01-19 12:09:00,50.8,26.8,30.20,SW,229,6.0,11.0,39,0.00,,---,0.00,VWS V13.01,2013-01-19 17:09:00,
2013-01-19 12:14:00,50.9,27.5,30.19,WSW,251,10.0,10.0,40,0.00,,---,0.00,VWS V13.01,2013-01-19 17:14:00,
2013-01-19 12:19:00,51.1,27.6,30.19,WSW,246,11.0,12.0,40,0.00,,---,0.00,VWS V13.01,2013-01-19 17:19:00,
2013-01-19 12:25:00,51.2,28.3,30.18,SW,234,4.0,15.0,41,0.00,,---,0.00,VWS V13.01,2013-01-19 17:25:00,
2013-01-19 12:30:00,51.4,27.3,30.18,SSW,196,3.0,10.0,39,0.00,,---,0.00,VWS V13.01,2013-01-19 17:30:00,
2013-01-19 12:35:00,51.6,27.5,30.18,West,267,4.0,13.0,39,0.00,,---,0.00,VWS V13.01,2013-01-19 17:35:00,
2013-01-19 12:40:00,51.7,27.6,30.18,SW,231,6.0,15.0,39,0.00,,---,0.00,VWS V13.01,2013-01-19 17:40:00,
2013-01-19 12:45:00,51.6,28.1,30.17,WSW,245,5.0,9.0,40,0.00,,---,0.00,VWS V13.01,2013-01-19 17:45:00,
2013-01-19 12:50:00,51.7,28.2,30.17,WSW,257,6.0,13.0,40,0.00,,---,0.00,VWS V13.01,2013-01-19 17:50:00,
2013-01-19 12:55:00,51.8,28.3,30.17,West,279,6.0,11.0,40,0.00,,---,0.00,VWS V13.01,2013-01-19 17:55:00,
2013-01-19 13:00:00,52.0,28.5,30.17,SSW,211,5.0,11.0,40,0.00,,---,0.00,VWS V13.01,2013-01-19 18:00:00,
2013-01-19 13:05:00,52.2,29.2,30.17,SSW,213,7.0,10.0,41,0.00,,---,0.00,VWS V13.01,2013-01-19 18:05:00,
2013-01-19 13:10:00,52.3,29.3,30.16,SSW,204,8.0,8.0,41,0.00,,---,0.00,VWS V13.01,2013-01-19 18:10:00,
2013-01-19 13:15:00,52.3,28.7,30.16,SSW,213,7.0,11.0,40,0.00,,---,0.00,VWS V13.01,2013-01-19 18:15:00,
2013-01-19 13:20:00,52.1,28.5,30.16,West,271,5.0,6.0,40,0.00,,---,0.00,VWS V13.01,2013-01-19 18:20:00,
2013-01-19 13:25:00,51.9,29.0,30.16,SW,217,10.0,11.0,41,0.00,,---,0.00,VWS V13.01,2013-01-19 18:25:00,
2013-01-19 13:30:00,52.1,29.7,30.15,WSW,250,0.0,3.0,42,0.00,,---,0.00,VWS V13.01,2013-01-19 18:30:00,
2013-01-19 13:35:00,52.4,30.0,30.15,SW,232,3.0,11.0,42,0.00,,---,0.00,VWS V13.01,2013-01-19 18:35:00,
2013-01-19 13:40:00,52.6,30.2,30.14,SW,227,5.0,11.0,42,0.00,,---,0.00,VWS V13.01,2013-01-19 18:40:00,
2013-01-19 13:45:00,52.7,30.3,30.14,SSW,200,6.0,9.0,42,0.00,,---,0.00,VWS V13.01,2013-01-19 18:45:00,
2013-01-19 13:50:00,52.9,30.5,30.14,WSW,249,5.0,6.0,42,0.00,,---,0.00,VWS V13.01,2013-01-19 18:50:00,
2013-01-19 13:55:00,53.1,30.0,30.14,SW,223,6.0,9.0,41,0.00,,---,0.00,VWS V13.01,2013-01-19 18:55:00,
2013-01-19 14:02:00,53.4,30.9,30.13,SSW,209,3.0,11.0,42,0.00,,---,0.00,VWS V13.01,2013-01-19 19:02:00,
2013-01-19 14:07:00,53.5,30.4,30.13,SW,220,11.0,15.0,41,0.00,,---,0.00,VWS V13.01,2013-01-19 19:07:00,
2013-01-19 14:12:00,53.5,30.4,30.13,WSW,244,14.0,14.0,41,0.00,,---,0.00,VWS V13.01,2013-01-19 19:12:00,
2013-01-19 14:17:00,53.5,30.4,30.13,WSW,238,5.0,14.0,41,0.00,,---,0.00,VWS V13.01,2013-01-19 19:17:00,
2013-01-19 14:22:00,53.4,30.3,30.12,SW,225,9.0,13.0,41,0.00,,---,0.00,VWS V13.01,2013-01-19 19:22:00,
2013-01-19 14:27:00,53.4,30.3,30.12,SW,236,10.0,11.0,41,0.00,,---,0.00,VWS V13.01,2013-01-19 19:27:00,
2013-01-19 14:33:00,53.5,30.4,30.12,SW,215,11.0,12.0,41,0.00,,---,0.00,VWS V13.01,2013-01-19 19:33:00,
2013-01-19 14:38:00,53.4,30.3,30.11,SSW,209,7.0,10.0,41,0.00,,---,0.00,VWS V13.01,2013-01-19 19:38:00,
2013-01-19 14:43:00,53.4,29.7,30.11,SW,229,5.0,6.0,40,0.00,,---,0.00,VWS V13.01,2013-01-19 19:43:00,
2013-01-19 14:48:00,53.4,30.3,30.11,West,263,5.0,10.0,41,0.00,,---,0.00,VWS V13.01,2013-01-19 19:48:00,
2013-01-19 14:53:00,53.4,29.7,30.11,West,265,4.0,11.0,40,0.00,,---,0.00,VWS V13.01,2013-01-19 19:53:00,
2013-01-19 14:58:00,53.5,30.4,30.11,SW,233,6.0,7.0,41,0.00,,---,0.00,VWS V13.01,2013-01-19 19:58:00,
2013-01-19 15:03:00,53.5,29.8,30.11,SW,225,8.0,8.0,40,0.00,,---,0.00,VWS V13.01,2013-01-19 20:03:00,
2013-01-19 15:08:00,53.5,29.8,30.11,WSW,254,5.0,6.0,40,0.00,,---,0.00,VWS V13.01,2013-01-19 20:08:00,
2013-01-19 15:13:00,53.4,30.3,30.11,WSW,248,10.0,10.0,41,0.00,,---,0.00,VWS V13.01,2013-01-19 20:13:00,
2013-01-19 15:18:00,53.5,30.4,30.11,SSW,205,5.0,11.0,41,0.00,,---,0.00,VWS V13.01,2013-01-19 20:18:00,
2013-01-19 15:23:00,53.5,30.4,30.10,South,186,6.0,6.0,41,0.00,,---,0.00,VWS V13.01,2013-01-19 20:23:00,
2013-01-19 15:29:00,53.4,29.7,30.10,SW,230,11.0,11.0,40,0.00,,---,0.00,VWS V13.01,2013-01-19 20:29:00,
2013-01-19 15:34:00,53.4,30.3,30.10,WSW,237,3.0,7.0,41,0.00,,---,0.00,VWS V13.01,2013-01-19 20:34:00,
2013-01-19 15:39:00,53.3,30.2,30.10,South,188,4.0,7.0,41,0.00,,---,0.00,VWS V13.01,2013-01-19 20:39:00,
2013-01-19 15:44:00,53.3,30.2,30.10,SW,233,4.0,9.0,41,0.00,,---,0.00,VWS V13.01,2013-01-19 20:44:00,
2013-01-19 15:49:00,53.1,30.0,30.09,SSW,211,6.0,6.0,41,0.00,,---,0.00,VWS V13.01,2013-01-19 20:49:00,
2013-01-19 15:54:00,53.0,30.5,30.09,SW,224,3.0,5.0,42,0.00,,---,0.00,VWS V13.01,2013-01-19 20:54:00,
2013-01-19 15:59:00,53.0,30.5,30.09,SW,236,5.0,7.0,42,0.00,,---,0.00,VWS V13.01,2013-01-19 20:59:00,
2013-01-19 16:04:00,52.8,30.4,30.09,SW,229,4.0,7.0,42,0.00,,---,0.00,VWS V13.01,2013-01-19 21:04:00,
2013-01-19 16:09:00,52.6,29.6,30.09,SW,229,11.0,12.0,41,0.00,,---,0.00,VWS V13.01,2013-01-19 21:09:00,
2013-01-19 16:14:00,52.4,30.6,30.08,SSW,212,9.0,9.0,43,0.00,,---,0.00,VWS V13.01,2013-01-19 21:14:00,
2013-01-19 16:19:00,52.2,30.4,30.08,SW,219,3.0,7.0,43,0.00,,---,0.00,VWS V13.01,2013-01-19 21:19:00,
2013-01-19 16:24:00,51.8,30.0,30.08,SSW,192,4.0,7.0,43,0.00,,---,0.00,VWS V13.01,2013-01-19 21:24:00,
2013-01-19 16:30:00,51.6,29.3,30.08,SW,216,3.0,7.0,42,0.00,,---,0.00,VWS V13.01,2013-01-19 21:30:00,
2013-01-19 16:35:00,51.2,29.5,30.08,SSW,202,8.0,13.0,43,0.00,,---,0.00,VWS V13.01,2013-01-19 21:35:00,
2013-01-19 16:40:00,51.0,29.3,30.08,SW,230,9.0,9.0,43,0.00,,---,0.00,VWS V13.01,2013-01-19 21:40:00,
2013-01-19 16:45:00,50.7,29.6,30.08,WSW,240,6.0,11.0,44,0.00,,---,0.00,VWS V13.01,2013-01-19 21:45:00,
2013-01-19 16:50:00,50.5,29.4,30.07,SW,216,2.0,2.0,44,0.00,,---,0.00,VWS V13.01,2013-01-19 21:50:00,
2013-01-19 16:56:00,50.1,29.6,30.07,SW,236,5.0,5.0,45,0.00,,---,0.00,VWS V13.01,2013-01-19 21:56:00,
2013-01-19 17:02:00,49.9,29.4,30.07,SSW,211,4.0,4.0,45,0.00,,---,0.00,VWS V13.01,2013-01-19 22:02:00,
2013-01-19 17:07:00,49.6,29.1,30.07,SW,218,1.0,6.0,45,0.00,,---,0.00,VWS V13.01,2013-01-19 22:07:00,
2013-01-19 17:12:00,49.5,29.6,30.07,SW,235,2.0,5.0,46,0.00,,---,0.00,VWS V13.01,2013-01-19 22:12:00,
2013-01-19 17:17:00,49.2,29.3,30.07,SW,224,0.0,3.0,46,0.00,,---,0.00,VWS V13.01,2013-01-19 22:17:00,
2013-01-19 17:22:00,48.9,31.6,30.07,SW,220,0.0,0.0,51,0.00,,---,0.00,VWS V13.01,2013-01-19 22:22:00,
2013-01-19 17:27:00,48.5,32.2,30.07,SW,220,0.0,0.0,53,0.00,,---,0.00,VWS V13.01,2013-01-19 22:27:00,
2013-01-19 17:32:00,47.9,33.0,30.07,SSW,196,0.0,0.0,56,0.00,,---,0.00,VWS V13.01,2013-01-19 22:32:00,
2013-01-19 17:38:00,47.3,33.3,30.07,SSW,196,0.0,3.0,58,0.00,,---,0.00,VWS V13.01,2013-01-19 22:38:00,
2013-01-19 17:43:00,46.8,33.7,30.07,SSW,197,0.0,3.0,60,0.00,,---,0.00,VWS V13.01,2013-01-19 22:43:00,
2013-01-19 17:48:00,46.3,34.0,30.07,SW,215,4.0,6.0,62,0.00,,---,0.00,VWS V13.01,2013-01-19 22:48:00,
2013-01-19 17:53:00,45.9,34.0,30.07,SW,229,1.0,1.0,63,0.00,,---,0.00,VWS V13.01,2013-01-19 22:53:00,
2013-01-19 17:58:00,45.7,34.2,30.07,WSW,240,6.0,6.0,64,0.00,,---,0.00,VWS V13.01,2013-01-19 22:58:00,
2013-01-19 18:03:00,45.4,34.3,30.07,SW,230,7.0,9.0,65,0.00,,---,0.00,VWS V13.01,2013-01-19 23:03:00,
2013-01-19 18:08:00,45.2,34.5,30.07,SW,224,3.0,8.0,66,0.00,,---,0.00,VWS V13.01,2013-01-19 23:08:00,
2013-01-19 18:14:00,45.0,34.3,30.08,SW,223,3.0,5.0,66,0.00,,---,0.00,VWS V13.01,2013-01-19 23:14:00,
2013-01-19 18:19:00,44.8,34.5,30.07,SSW,210,0.0,4.0,67,0.00,,---,0.00,VWS V13.01,2013-01-19 23:19:00,
2013-01-19 18:24:00,44.6,34.7,30.07,SW,232,0.0,2.0,68,0.00,,---,0.00,VWS V13.01,2013-01-19 23:24:00,
2013-01-19 18:29:00,44.4,34.9,30.07,SSW,209,0.0,4.0,69,0.00,,---,0.00,VWS V13.01,2013-01-19 23:29:00,
2013-01-19 18:34:00,44.2,34.7,30.07,SSW,209,2.0,2.0,69,0.00,,---,0.00,VWS V13.01,2013-01-19 23:34:00,
2013-01-19 18:39:00,44.0,34.9,30.07,SSW,211,0.0,3.0,70,0.00,,---,0.00,VWS V13.01,2013-01-19 23:39:00,
2013-01-19 18:44:00,43.8,34.7,30.08,SSW,211,2.0,4.0,70,0.00,,---,0.00,VWS V13.01,2013-01-19 23:44:00,
2013-01-19 18:49:00,43.5,34.4,30.08,SSW,211,0.0,0.0,70,0.00,,---,0.00,VWS V13.01,2013-01-19 23:49:00,
2013-01-19 18:54:00,43.3,34.5,30.08,SSW,211,0.0,3.0,71,0.00,,---,0.00,VWS V13.01,2013-01-19 23:54:00,
2013-01-19 18:59:00,43.0,34.2,30.08,SSW,211,0.0,0.0,71,0.00,,---,0.00,VWS V13.01,2013-01-19 23:59:00,
2013-01-19 19:04:00,42.7,34.3,30.07,SSW,211,0.0,3.0,72,0.00,,---,0.00,VWS V13.01,2013-01-20 00:04:00,
2013-01-19 19:09:00,42.5,34.1,30.08,SSW,211,4.0,4.0,72,0.00,,---,0.00,VWS V13.01,2013-01-20 00:09:00,
2013-01-19 19:14:00,42.4,34.4,30.07,SW,222,1.0,3.0,73,0.00,,---,0.00,VWS V13.01,2013-01-20 00:14:00,
2013-01-19 19:19:00,42.2,34.2,30.07,SW,223,2.0,3.0,73,0.00,,---,0.00,VWS V13.01,2013-01-20 00:19:00,
2013-01-19 19:24:00,42.1,34.1,30.07,SW,223,0.0,0.0,73,0.00,,---,0.00,VWS V13.01,2013-01-20 00:24:00,
2013-01-19 19:29:00,41.9,34.2,30.07,SW,215,2.0,4.0,74,0.00,,---,0.00,VWS V13.01,2013-01-20 00:29:00,
2013-01-19 19:35:00,41.8,34.5,30.07,SSW,196,1.0,3.0,75,0.00,,---,0.00,VWS V13.01,2013-01-20 00:35:00,
2013-01-19 19:40:00,41.8,34.5,30.07,SW,234,2.0,3.0,75,0.00,,---,0.00,VWS V13.01,2013-01-20 00:40:00,
2013-01-19 19:45:00,41.7,34.7,30.07,SW,223,2.0,3.0,76,0.00,,---,0.00,VWS V13.01,2013-01-20 00:45:00,
2013-01-19 19:50:00,41.6,34.9,30.07,SW,227,4.0,6.0,77,0.00,,---,0.00,VWS V13.01,2013-01-20 00:50:00,
2013-01-19 19:55:00,41.5,34.8,30.06,SW,221,6.0,7.0,77,0.00,,---,0.00,VWS V13.01,2013-01-20 00:55:00,
2013-01-19 20:00:00,41.4,34.7,30.06,SSW,212,3.0,4.0,77,0.00,,---,0.00,VWS V13.01,2013-01-20 01:00:00,
2013-01-19 20:05:00,41.4,34.7,30.06,SW,227,6.0,7.0,77,0.00,,---,0.00,VWS V13.01,2013-01-20 01:05:00,
2013-01-19 20:10:00,41.3,34.7,30.05,SW,219,4.0,4.0,77,0.00,,---,0.00,VWS V13.01,2013-01-20 01:10:00,
2013-01-19 20:15:00,41.3,34.3,30.05,SSW,198,5.0,7.0,76,0.00,,---,0.00,VWS V13.01,2013-01-20 01:15:00,
2013-01-19 20:20:00,41.4,34.4,30.05,SW,216,5.0,8.0,76,0.00,,---,0.00,VWS V13.01,2013-01-20 01:20:00,
2013-01-19 20:25:00,41.5,34.2,30.05,SSW,206,5.0,5.0,75,0.00,,---,0.00,VWS V13.01,2013-01-20 01:25:00,
2013-01-19 20:30:00,41.5,34.2,30.05,SSW,196,3.0,4.0,75,0.00,,---,0.00,VWS V13.01,2013-01-20 01:30:00,
2013-01-19 20:35:00,41.6,33.9,30.04,SW,221,9.0,9.0,74,0.00,,---,0.00,VWS V13.01,2013-01-20 01:35:00,
2013-01-19 20:40:00,41.7,34.0,30.04,SSW,212,3.0,6.0,74,0.00,,---,0.00,VWS V13.01,2013-01-20 01:40:00,
2013-01-19 20:45:00,41.7,34.0,30.04,SSW,205,6.0,10.0,74,0.00,,---,0.00,VWS V13.01,2013-01-20 01:45:00,
2013-01-19 20:51:00,41.8,33.8,30.04,SW,219,6.0,9.0,73,0.00,,---,0.00,VWS V13.01,2013-01-20 01:51:00,
2013-01-19 20:56:00,41.9,33.9,30.04,SW,222,2.0,3.0,73,0.00,,---,0.00,VWS V13.01,2013-01-20 01:56:00,
2013-01-19 21:01:00,41.9,33.9,30.03,SSW,211,9.0,12.0,73,0.00,,---,0.00,VWS V13.01,2013-01-20 02:01:00,
2013-01-19 21:07:00,41.8,33.8,30.03,SW,220,5.0,11.0,73,0.00,,---,0.00,VWS V13.01,2013-01-20 02:07:00,
2013-01-19 21:12:00,41.8,33.8,30.03,SSW,211,4.0,8.0,73,0.00,,---,0.00,VWS V13.01,2013-01-20 02:12:00,
2013-01-19 21:17:00,41.8,33.8,30.02,SW,217,6.0,9.0,73,0.00,,---,0.00,VWS V13.01,2013-01-20 02:17:00,
2013-01-19 21:22:00,41.7,33.7,30.02,SW,219,5.0,6.0,73,0.00,,---,0.00,VWS V13.01,2013-01-20 02:22:00,
2013-01-19 21:27:00,41.7,33.7,30.02,SW,225,6.0,7.0,73,0.00,,---,0.00,VWS V13.01,2013-01-20 02:27:00,
2013-01-19 21:32:00,41.7,33.7,30.01,SSW,209,5.0,11.0,73,0.00,,---,0.00,VWS V13.01,2013-01-20 02:32:00,
2013-01-19 21:37:00,41.8,33.8,30.01,SW,229,4.0,5.0,73,0.00,,---,0.00,VWS V13.01,2013-01-20 02:37:00,
2013-01-19 21:43:00,41.8,33.8,30.01,SW,224,3.0,7.0,73,0.00,,---,0.00,VWS V13.01,2013-01-20 02:43:00,
2013-01-19 21:48:00,41.8,33.8,30.01,SW,215,9.0,9.0,73,0.00,,---,0.00,VWS V13.01,2013-01-20 02:48:00,
2013-01-19 21:53:00,41.8,33.5,30.00,SW,215,7.0,13.0,72,0.00,,---,0.00,VWS V13.01,2013-01-20 02:53:00,
2013-01-19 21:58:00,41.9,33.5,30.00,SW,230,7.0,7.0,72,0.00,,---,0.00,VWS V13.01,2013-01-20 02:58:00,
2013-01-19 22:03:00,41.9,33.5,30.00,SW,217,3.0,3.0,72,0.00,,---,0.00,VWS V13.01,2013-01-20 03:03:00,
2013-01-19 22:08:00,41.9,33.5,30.00,West,266,4.0,4.0,72,0.00,,---,0.00,VWS V13.01,2013-01-20 03:08:00,
2013-01-19 22:13:00,41.9,33.2,30.00,WSW,246,6.0,7.0,71,0.00,,---,0.00,VWS V13.01,2013-01-20 03:13:00,
2013-01-19 22:18:00,41.8,33.1,30.00,SW,219,3.0,9.0,71,0.00,,---,0.00,VWS V13.01,2013-01-20 03:18:00,
2013-01-19 22:24:00,41.8,33.1,29.99,SW,227,2.0,4.0,71,0.00,,---,0.00,VWS V13.01,2013-01-20 03:24:00,
2013-01-19 22:29:00,41.8,33.1,29.99,WSW,238,6.0,10.0,71,0.00,,---,0.00,VWS V13.01,2013-01-20 03:29:00,
2013-01-19 22:34:00,41.7,33.0,29.99,SW,226,5.0,7.0,71,0.00,,---,0.00,VWS V13.01,2013-01-20 03:34:00,
2013-01-19 22:39:00,41.8,33.1,29.99,WSW,240,4.0,4.0,71,0.00,,---,0.00,VWS V13.01,2013-01-20 03:39:00,
2013-01-19 22:44:00,41.7,33.0,29.99,SW,232,3.0,4.0,71,0.00,,---,0.00,VWS V13.01,2013-01-20 03:44:00,
2013-01-19 22:49:00,41.8,32.8,29.99,SW,229,0.0,2.0,70,0.00,,---,0.00,VWS V13.01,2013-01-20 03:49:00,
2013-01-19 22:54:00,41.7,32.7,29.98,WSW,240,2.0,4.0,70,0.00,,---,0.00,VWS V13.01,2013-01-20 03:54:00,
2013-01-19 22:59:00,41.7,32.7,29.98,SW,223,1.0,3.0,70,0.00,,---,0.00,VWS V13.01,2013-01-20 03:59:00,
2013-01-19 23:04:00,41.7,32.7,29.98,SW,229,2.0,5.0,70,0.00,,---,0.00,VWS V13.01,2013-01-20 04:04:00,
2013-01-19 23:09:00,41.6,32.2,29.98,SW,222,5.0,5.0,69,0.00,,---,0.00,VWS V13.01,2013-01-20 04:09:00,
2013-01-19 23:14:00,41.5,32.5,29.97,SW,214,3.0,6.0,70,0.00,,---,0.00,VWS V13.01,2013-01-20 04:14:00,
2013-01-19 23:19:00,41.4,32.4,29.97,SW,229,4.0,4.0,70,0.00,,---,0.00,VWS V13.01,2013-01-20 04:19:00,
2013-01-19 23:25:00,41.4,32.4,29.97,SSW,207,6.0,8.0,70,0.00,,---,0.00,VWS V13.01,2013-01-20 04:25:00,
2013-01-19 23:30:00,41.3,32.3,29.97,SSW,204,5.0,9.0,70,0.00,,---,0.00,VWS V13.01,2013-01-20 04:30:00,
2013-01-19 23:35:00,41.2,32.2,29.97,SW,215,6.0,9.0,70,0.00,,---,0.00,VWS V13.01,2013-01-20 04:35:00,
2013-01-19 23:40:00,41.0,32.0,29.96,SW,223,3.0,6.0,70,0.00,,---,0.00,VWS V13.01,2013-01-20 04:40:00,
2013-01-19 23:45:00,40.9,31.9,29.96,SSW,212,2.0,7.0,70,0.00,,---,0.00,VWS V13.01,2013-01-20 04:45:00,
2013-01-19 23:50:00,40.8,31.8,29.95,SW,219,6.0,6.0,70,0.00,,---,0.00,VWS V13.01,2013-01-20 04:50:00,
2013-01-19 23:55:00,40.7,31.7,29.95,SSW,200,5.0,6.0,70,0.00,,---,0.00,VWS V13.01,2013-01-20 04:55:00,